This demonstration page uses our WeatherBlox Daily Observations layout. Learn more.

Left ArrowRight Arrow

31.84235, -102.49876

Hourly Observations for July 15, 2022

Temp ( °F °C ) Dew Point ( °F °C ) Humidity (%) Winds ( mph kmh ) Pressure ( in mb ) Visibility ( mi km ) Precip ( " mm )
12:53 am 00:53 Clear 77 25 61 16.1 58 58 SSE 8 13 29.99 1016 10 16 0.00 0.00
1:53 am 01:53 Clear 77 25 61 16.1 58 58 SSE 8 13 29.99 1016 10 16 0.00 0.00
2:53 am 02:53 Clear 76 24.4 60 15.6 58 58 S 7 11 29.98 1015 10 16 0.00 0.00
3:53 am 03:53 Clear 75 23.9 59 15 58 58 S 5 7 29.97 1015 10 16 0.00 0.00
4:53 am 04:53 Clear 74 23.3 59 15 60 60 S 6 9 29.98 1015 10 16 0.00 0.00
5:53 am 05:53 Clear 72 22.2 59 15 64 64 Calm 29.98 1015 10 16 0.00 0.00
6:53 am 06:53 Clear 71 21.7 58 14.4 63 63 ESE 5 7 30.03 1017 10 16 0.00 0.00
7:53 am 07:53 Sunny 74 23.3 59 15 60 60 ESE 3 6 30.03 1017 10 16 0.00 0.00
8:53 am 08:53 Sunny 76 24.4 59 15 56 56 SE 7 11 30.03 1017 10 16 0.00 0.00
9:53 am 09:53 Sunny 81 27.2 58 14.4 45 45 S 10 17 30.03 1017 10 16 0.00 0.00
10:53 am 10:53 Sunny 86 30 58 14.4 39 39 S 9 15 30.02 1017 10 16 0.00 0.00
11:53 am 11:53 Sunny 89 31.7 57 13.9 34 34 SE 12 19 30.01 1016 10 16 0.00 0.00
12:53 pm 12:53 Sunny 91 32.8 56 13.3 31 31 SSE 12 19 30.01 1016 10 16 0.00 0.00
1:53 pm 13:53 Sunny 94 34.4 55 12.8 27 27 ESE 14 22 29.99 1016 10 16 0.00 0.00
2:53 pm 14:53 Sunny 95 35 56 13.3 27 27 SE 14 22 29.97 1015 10 16 0.00 0.00
3:53 pm 15:53 Sunny 96 35.6 54 12.2 24 24 SE 16 26 29.96 1014 10 16 0.00 0.00
4:53 pm 16:53 Sunny 95 35 53 11.7 24 24 SSE 8 13 29.94 1014 10 16 0.00 0.00
5:53 pm 17:53 Sunny 96 35.6 51 10.6 22 22 SE 15 24 29.93 1014 10 16 0.00 0.00
6:53 pm 18:53 Sunny 95 35 50 10 22 22 SSE 13 20 29.92 1013 10 16 0.00 0.00
7:53 pm 19:53 Sunny 94 34.4 49 9.4 21 21 SSE 13 20 29.92 1013 10 16 0.00 0.00
8:53 pm 20:53 Sunny 92 33.3 47 8.3 21 21 SSE 12 19 29.93 1013 10 16 0.00 0.00
9:53 pm 21:53 Clear 89 31.7 48 8.9 24 24 SE 8 13 29.93 1014 10 16 0.00 0.00
10:53 pm 22:53 Clear 87 30.6 48 8.9 26 26 SE 8 13 29.94 1014 10 16 0.00 0.00
11:53 pm 23:53 Clear 86 30 52 11.1 31 31 S 9 15 29.95 1014 10 16 0.00 0.00

Powered by AerisWeather